This is the latest recevied weather packets stored in our database for station/object W3AJR. If no packets are shown the sender has not sent any weather packets the latest 10 day(s).
| Time | Temp. | Humidity | Pressure | Rain* | Wind** | Luminosity | Snow |
|---|---|---|---|---|---|---|---|
| 1777893291 | 7.22° C | 89% | 1014.9 hPa | 0 mm | - | 27 W/m² | - |
| 1777892987 | 7.22° C | 89% | 1014.9 hPa | 0 mm | - | 26 W/m² | - |
| 1777892685 | 7.22° C | 89% | 1014.7 hPa | 0 mm | - | 26 W/m² | - |
| 1777892380 | 7.22° C | 89% | 1015.1 hPa | 0 mm | - | 29 W/m² | - |
| 1777892076 | 6.67° C | 89% | 1014.9 hPa | 0 mm | - | 23 W/m² | - |
| 1777891774 | 6.67° C | 89% | 1015 hPa | 0 mm | - | 17 W/m² | - |
| 1777891471 | 6.67° C | 89% | 1014.9 hPa | 0 mm | - | 17 W/m² | - |
| 1777891167 | 6.67° C | 90% | 1014.8 hPa | 0 mm | - | 15 W/m² | - |
| 1777890866 | 6.67° C | 91% | 1014.7 hPa | 0 mm | - | 10 W/m² | - |
| 1777890563 | 6.67° C | 91% | 1014.8 hPa | 0 mm | - | 8 W/m² | - |
| 1777890258 | 6.67° C | 92% | 1014.9 hPa | 0 mm | - | 5 W/m² | - |
| 1777889955 | 6.67° C | 92% | 1014.7 hPa | 0 mm | - | 3 W/m² | - |
| 1777889653 | 6.67° C | 92% | 1015 hPa | 0 mm | - | 1 W/m² | - |
| 1777889349 | 6.67° C | 92% | 1014.9 hPa | 0 mm | - | 0 W/m² | - |
| 1777889047 | 7.22° C | 91% | 1014.7 hPa | 0 mm | - | 0 W/m² | - |
| 1777888744 | 7.22° C | 91% | 1014.9 hPa | 0 mm | - | 0 W/m² | - |
| 1777888441 | 7.22° C | 91% | 1014.8 hPa | 0 mm | - | 0 W/m² | - |
| 1777888136 | 7.22° C | 90% | 1014.8 hPa | 0 mm | - | 0 W/m² | - |
| 1777887834 | 7.22° C | 89% | 1014.5 hPa | 0 mm | - | 0 W/m² | - |
| 1777887531 | 7.22° C | 89% | 1015 hPa | 0 mm | - | 0 W/m² | - |
| 1777887226 | 7.22° C | 89% | 1014.9 hPa | 0 mm | - | 0 W/m² | - |
| 1777886923 | 7.78° C | 88% | 1015.1 hPa | 0 mm | - | 0 W/m² | - |
| 1777886618 | 7.78° C | 88% | 1014.9 hPa | 0 mm | - | 0 W/m² | - |
| 1777886316 | 7.78° C | 87% | 1014.7 hPa | 0 mm | - | 0 W/m² | - |
| 1777886014 | 7.78° C | 86% | 1015.1 hPa | 0 mm | - | 0 W/m² | - |
* Rain latest hour (hover to see other rain measurements)
** Current wind speed in m/s (hover to see current wind gust speed)